| time (UTC) | temp F | wind direction | speed MPH | gust MPH | rain 1hr in | rain 24hr in | rain mn in | humidity % | barometer mb |
| 20260502222012 | 0 | 94 | 0.0 | 0.0 | 0.00 | 0.00 | 0.00 | 61 | 1000.5 |
| 20260502221512 | 0 | 94 | 0.0 | 1.0 | 0.00 | 0.00 | 0.00 | 61 | 1000.7 |
| 20260502221011 | 0 | 94 | 0.0 | 0.0 | 0.00 | 0.00 | 0.00 | 60 | 1000.5 |
| 20260502220511 | 0 | 170 | 0.0 | 0.0 | 0.00 | 0.00 | 0.00 | 60 | 1000.7 |
| 20260502220011 | 0 | 189 | 0.0 | 0.0 | 0.00 | 0.00 | 0.00 | 60 | 1000.3 |
| 20260502215510 | 0 | 177 | 0.0 | 0.0 | 0.00 | 0.00 | 0.00 | 60 | 1000.5 |
| 20260502215010 | 0 | 110 | 0.0 | 0.0 | 0.00 | 0.00 | 0.00 | 59 | 1000.4 |
| 20260502214510 | 0 | 115 | 0.0 | 1.0 | 0.00 | 0.00 | 0.00 | 60 | 1000.3 |
| 20260502214009 | 0 | 353 | 0.0 | 0.0 | 0.00 | 0.00 | 0.00 | 60 | 1000.3 |
| 20260502213509 | 0 | 345 | 1.0 | 1.0 | 0.00 | 0.00 | 0.00 | 61 | 1000.2 |
| 20260502213009 | 0 | 321 | 0.0 | 1.0 | 0.00 | 0.00 | 0.00 | 62 | 1000.3 |
| 20260502212508 | 0 | 203 | 0.0 | 0.0 | 0.00 | 0.00 | 0.00 | 62 | 1000.2 |
| 20260502212008 | 0 | 160 | 0.0 | 0.0 | 0.00 | 0.00 | 0.00 | 62 | 1000.3 |
| 20260502211508 | 0 | 23 | 0.0 | 1.0 | 0.00 | 0.00 | 0.00 | 63 | 1000.3 |
| 20260502211008 | 0 | 109 | 0.0 | 0.0 | 0.00 | 0.00 | 0.00 | 65 | 1000.3 |
| 20260502210507 | 0 | 127 | 0.0 | 0.0 | 0.00 | 0.00 | 0.00 | 66 | 1000.3 |
| 20260502210007 | 0 | 104 | 0.0 | 0.0 | 0.00 | 0.00 | 0.00 | 67 | 1000.3 |
| 20260502205507 | 0 | 103 | 0.0 | 0.0 | 0.00 | 0.00 | 0.00 | 68 | 1000.2 |
| 20260502205006 | 0 | 103 | 0.0 | 0.0 | 0.00 | 0.00 | 0.00 | 68 | 1000.3 |
| 20260502204506 | 0 | 103 | 0.0 | 1.0 | 0.00 | 0.00 | 0.00 | 67 | 1000.5 |
| 20260502204006 | 0 | 104 | 0.0 | 0.0 | 0.00 | 0.00 | 0.00 | 69 | 1000.1 |
| 20260502203505 | 0 | 99 | 1.0 | 1.0 | 0.00 | 0.00 | 0.00 | 67 | 1000.3 |
| 20260502203005 | 0 | 9 | 0.0 | 0.0 | 0.00 | 0.00 | 0.00 | 67 | 1000.3 |
| 20260502202500 | 0 | 9 | 0.0 | 0.0 | 0.00 | 0.00 | 0.00 | 65 | 1000.3 |
| 20260502201959 | 0 | 115 | 0.0 | 0.0 | 0.00 | 0.00 | 0.00 | 70 | 1000.4 |
| 20260502201459 | 0 | 132 | 0.0 | 0.0 | 0.00 | 0.00 | 0.00 | 70 | 1000.4 |
| 20260502200959 | 0 | 178 | 0.0 | 0.0 | 0.00 | 0.00 | 0.00 | 68 | 1000.4 |
| 20260502200458 | 0 | 172 | 0.0 | 0.0 | 0.00 | 0.00 | 0.00 | 70 | 1000.3 |
| 20260502195958 | 0 | 194 | 1.0 | 2.0 | 0.00 | 0.00 | 0.00 | 69 | 1000.1 |
| 20260502195458 | 0 | 153 | 0.0 | 0.0 | 0.00 | 0.00 | 0.00 | 70 | 1000.3 |
| 20260502194957 | 0 | 153 | 0.0 | 0.0 | 0.00 | 0.00 | 0.00 | 70 | 1000.6 |
| 20260502194457 | 0 | 126 | 0.0 | 0.0 | 0.00 | 0.00 | 0.00 | 70 | 1000.5 |
| 20260502193957 | 0 | 131 | 0.0 | 0.0 | 0.00 | 0.00 | 0.00 | 70 | 1000.5 |
| 20260502193457 | 0 | 196 | 0.0 | 0.0 | 0.00 | 0.00 | 0.00 | 67 | 1000.4 |
| 20260502192956 | 0 | 147 | 0.0 | 0.0 | 0.00 | 0.00 | 0.00 | 68 | 1000.5 |
| 20260502192456 | 0 | 117 | 0.0 | 0.0 | 0.00 | 0.00 | 0.00 | 67 | 1000.8 |
| 20260502191955 | 0 | 191 | 1.0 | 1.0 | 0.00 | 0.00 | 0.00 | 68 | 1000.7 |
| 20260502191455 | 0 | 203 | 0.0 | 0.0 | 0.00 | 0.00 | 0.00 | 68 | 1001.0 |
| 20260502190955 | 0 | 80 | 0.0 | 0.0 | 0.00 | 0.00 | 0.00 | 70 | 1000.9 |
| 20260502190454 | 0 | 72 | 2.0 | 2.0 | 0.00 | 0.00 | 0.00 | 71 | 1000.7 |
| 20260502185954 | 0 | 97 | 0.0 | 1.0 | 0.00 | 0.00 | 0.00 | 71 | 1000.8 |
| 20260502185453 | 0 | 101 | 0.0 | 0.0 | 0.00 | 0.00 | 0.00 | 71 | 1000.9 |
| 20260502184953 | 0 | 101 | 0.0 | 0.0 | 0.00 | 0.00 | 0.00 | 73 | 1000.9 |
| 20260502184453 | 0 | 102 | 0.0 | 0.0 | 0.00 | 0.00 | 0.00 | 72 | 1000.9 |
| 20260502183952 | 0 | 108 | 0.0 | 0.0 | 0.00 | 0.00 | 0.00 | 71 | 1001.0 |
| 20260502183452 | 0 | 142 | 0.0 | 0.0 | 0.00 | 0.00 | 0.00 | 72 | 1001.1 |
| 20260502182952 | 0 | 154 | 0.0 | 0.0 | 0.00 | 0.00 | 0.00 | 71 | 1001.1 |
| 20260502182451 | 0 | 112 | 1.0 | 1.0 | 0.00 | 0.00 | 0.00 | 73 | 1001.1 |
| 20260502181951 | 0 | 121 | 0.0 | 0.0 | 0.00 | 0.00 | 0.00 | 72 | 1001.0 |
| 20260502181450 | 0 | 106 | 0.0 | 0.0 | 0.00 | 0.00 | 0.00 | 73 | 1001.4 |
| 20260502180949 | 0 | 82 | 0.0 | 1.0 | 0.00 | 0.00 | 0.00 | 75 | 1001.3 |
| 20260502170444 | 0 | 103 | 1.0 | 1.0 | 0.00 | 0.00 | 0.00 | 74 | 1001.7 |
| 20260502163943 | 0 | 172 | 0.0 | 1.0 | 0.00 | 0.00 | 0.00 | 76 | 1001.9 |
| 20260502163442 | 0 | 118 | 0.0 | 0.0 | 0.00 | 0.00 | 0.00 | 77 | 1002.1 |
| 20260502162942 | 0 | 133 | 0.0 | 0.0 | 0.00 | 0.00 | 0.00 | 77 | 1002.3 |
| 20260502162442 | 0 | 99 | 0.0 | 1.0 | 0.00 | 0.00 | 0.00 | 76 | 1002.7 |
| 20260502161942 | 0 | 127 | 0.0 | 0.0 | 0.00 | 0.00 | 0.00 | 78 | 1002.5 |
| 20260502161441 | 0 | 201 | 0.0 | 1.0 | 0.00 | 0.00 | 0.00 | 77 | 1002.6 |
| 20260502160941 | 0 | 112 | 1.0 | 1.0 | 0.00 | 0.00 | 0.00 | 78 | 1002.7 |
| 20260502160440 | 0 | 89 | 2.0 | 2.0 | 0.00 | 0.00 | 0.00 | 77 | 1003.1 |
| 20260502151923 | 0 | 104 | 0.0 | 1.0 | 0.00 | 0.00 | 0.00 | 80 | 1002.3 |
| 20260502151422 | 0 | 123 | 0.0 | 0.0 | 0.00 | 0.00 | 0.00 | 79 | 1002.3 |
| 20260502150922 | 0 | 119 | 0.0 | 0.0 | 0.00 | 0.00 | 0.00 | 80 | 1002.5 |
| 20260502150421 | 0 | 126 | 0.0 | 0.0 | 0.00 | 0.00 | 0.00 | 80 | 1002.4 |
| 20260502130358 | 0 | 127 | 0.0 | 0.0 | 0.00 | 0.00 | 0.00 | 73 | 1001.8 |
| 20260502123354 | 0 | 46 | 1.0 | 1.0 | 0.00 | 0.00 | 0.00 | 73 | 1001.7 |
| 20260502122854 | 0 | 193 | 0.0 | 0.0 | 0.00 | 0.00 | 0.00 | 75 | 1001.9 |
| 20260502122353 | 0 | 184 | 0.0 | 0.0 | 0.00 | 0.00 | 0.00 | 77 | 1001.8 |
| 20260502121853 | 0 | 306 | 1.0 | 1.0 | 0.00 | 0.00 | 0.00 | 77 | 1001.5 |
| 20260502121353 | 0 | 135 | 0.0 | 0.0 | 0.00 | 0.00 | 0.00 | 77 | 1001.3 |
| 20260502120852 | 0 | 186 | 0.0 | 0.0 | 0.00 | 0.00 | 0.00 | 81 | 1001.4 |
| 20260502120352 | 0 | 155 | 0.0 | 0.0 | 0.00 | 0.00 | 0.00 | 80 | 1001.3 |
| 20260502115851 | 0 | 128 | 0.0 | 0.0 | 0.00 | 0.00 | 0.00 | 79 | 1001.4 |
| 20260502115351 | 0 | 172 | 0.0 | 0.0 | 0.00 | 0.00 | 0.00 | 83 | 1001.5 |
| 20260502114851 | 0 | 172 | 0.0 | 0.0 | 0.00 | 0.00 | 0.00 | 84 | 1001.3 |
| 20260502114351 | 0 | 172 | 0.0 | 0.0 | 0.00 | 0.00 | 0.00 | 83 | 1001.5 |
| 20260502113850 | 0 | 172 | 0.0 | 0.0 | 0.00 | 0.00 | 0.00 | 80 | 1001.6 |
| 20260502113349 | 0 | 162 | 0.0 | 0.0 | 0.00 | 0.00 | 0.00 | 79 | 1001.3 |
| 20260502112849 | 0 | 220 | 0.0 | 0.0 | 0.00 | 0.00 | 0.00 | 82 | 1001.3 |
| 20260502112348 | 0 | 207 | 0.0 | 0.0 | 0.00 | 0.00 | 0.00 | 83 | 1001.4 |
| 20260502111848 | 0 | 266 | 1.0 | 2.0 | 0.00 | 0.00 | 0.00 | 84 | 1001.3 |
| 20260502111348 | 0 | 201 | 0.0 | 0.0 | 0.00 | 0.00 | 0.00 | 82 | 1001.6 |
| 20260502110848 | 0 | 188 | 0.0 | 0.0 | 0.00 | 0.00 | 0.00 | 83 | 1001.5 |
| 20260502110347 | 0 | 195 | 0.0 | 0.0 | 0.00 | 0.00 | 0.00 | 84 | 1001.5 |
| 20260502105847 | 0 | 195 | 0.0 | 0.0 | 0.00 | 0.00 | 0.00 | 83 | 1001.7 |
| 20260502105347 | 0 | 132 | 0.0 | 0.0 | 0.00 | 0.00 | 0.00 | 84 | 1001.5 |
| 20260502104846 | 0 | 179 | 0.0 | 0.0 | 0.00 | 0.00 | 0.00 | 84 | 1001.7 |
| 20260502104346 | 0 | 125 | 0.0 | 0.0 | 0.00 | 0.00 | 0.00 | 83 | 1001.7 |
| 20260502103845 | 0 | 337 | 1.0 | 1.0 | 0.00 | 0.00 | 0.00 | 81 | 1001.8 |
| 20260502103345 | 0 | 84 | 2.0 | 2.0 | 0.00 | 0.00 | 0.00 | 82 | 1001.5 |
| 20260502102840 | 0 | 116 | 0.0 | 0.0 | 0.00 | 0.00 | 0.00 | 83 | 1001.5 |
| 20260502102339 | 0 | 157 | 0.0 | 0.0 | 0.00 | 0.00 | 0.00 | 84 | 1001.6 |
| 20260502101839 | 0 | 182 | 0.0 | 0.0 | 0.00 | 0.00 | 0.00 | 84 | 1001.7 |
| 20260502101339 | 0 | 27 | 0.0 | 1.0 | 0.00 | 0.00 | 0.00 | 84 | 1001.7 |
| 20260502100839 | 0 | 124 | 0.0 | 0.0 | 0.00 | 0.00 | 0.00 | 86 | 1001.9 |
| 20260502100338 | 0 | 124 | 0.0 | 0.0 | 0.00 | 0.00 | 0.00 | 85 | 1001.7 |
| 20260502091320 | 0 | 135 | 0.0 | 0.0 | 0.00 | 0.00 | 0.00 | 87 | 1001.9 |
| 20260502090820 | 0 | 135 | 0.0 | 0.0 | 0.00 | 0.00 | 0.00 | 87 | 1001.5 |
| 20260502090320 | 0 | 135 | 0.0 | 0.0 | 0.00 | 0.00 | 0.00 | 86 | 1001.5 |
| 20260502071305 | 0 | 174 | 0.0 | 0.0 | 0.00 | 0.00 | 0.00 | 87 | 1000.8 |
| 20260502070805 | 0 | 174 | 0.0 | 0.0 | 0.00 | 0.00 | 0.00 | 87 | 1000.7 |
| 20260502070305 | 0 | 174 | 0.0 | 0.0 | 0.00 | 0.00 | 0.00 | 87 | 1000.9 |
| 20260502065805 | 0 | 174 | 0.0 | 0.0 | 0.00 | 0.00 | 0.00 | 88 | 1000.8 |
| 20260502065306 | 0 | 174 | 0.0 | 0.0 | 0.00 | 0.00 | 0.00 | 88 | 1000.5 |
| 20260502064804 | 0 | 174 | 0.0 | 0.0 | 0.00 | 0.00 | 0.00 | 88 | 1000.8 |
| 20260502064304 | 0 | 174 | 0.0 | 0.0 | 0.00 | 0.00 | 0.00 | 88 | 1001.0 |
| 20260502063803 | 0 | 174 | 0.0 | 0.0 | 0.00 | 0.00 | 0.00 | 88 | 1000.9 |
| 20260502063303 | 0 | 174 | 0.0 | 0.0 | 0.00 | 0.00 | 0.00 | 88 | 1001.0 |
| 20260502062803 | 0 | 174 | 0.0 | 0.0 | 0.00 | 0.00 | 0.00 | 88 | 1001.0 |
| 20260502062306 | 0 | 174 | 0.0 | 0.0 | 0.00 | 0.00 | 0.00 | 88 | 1000.9 |
| 20260502061802 | 0 | 174 | 0.0 | 0.0 | 0.00 | 0.00 | 0.00 | 88 | 1000.9 |
| 20260502061302 | 0 | 174 | 0.0 | 0.0 | 0.00 | 0.00 | 0.00 | 88 | 1001.1 |
| 20260502060802 | 0 | 174 | 0.0 | 0.0 | 0.00 | 0.00 | 0.00 | 88 | 1001.0 |
| 20260502060301 | 0 | 174 | 0.0 | 0.0 | 0.00 | 0.00 | 0.00 | 88 | 1001.1 |
| 20260502055801 | 0 | 174 | 0.0 | 0.0 | 0.00 | 0.00 | 0.00 | 88 | 1001.0 |
| 20260502055301 | 0 | 175 | 0.0 | 0.0 | 0.00 | 0.00 | 0.00 | 89 | 1000.9 |
| 20260502054800 | 0 | 175 | 0.0 | 0.0 | 0.00 | 0.00 | 0.00 | 88 | 1001.1 |
| 20260502054300 | 0 | 175 | 0.0 | 0.0 | 0.00 | 0.00 | 0.00 | 89 | 1001.1 |
| 20260502053800 | 0 | 175 | 0.0 | 0.0 | 0.00 | 0.00 | 0.00 | 89 | 1001.2 |
| 20260502053300 | 0 | 175 | 0.0 | 0.0 | 0.00 | 0.00 | 0.00 | 89 | 1001.4 |
| 20260502052759 | 0 | 175 | 0.0 | 0.0 | 0.00 | 0.00 | 0.00 | 89 | 1001.2 |
| 20260502052259 | 0 | 175 | 0.0 | 0.0 | 0.00 | 0.00 | 0.00 | 90 | 1001.4 |
| 20260502051759 | 0 | 175 | 0.0 | 0.0 | 0.00 | 0.00 | 0.00 | 89 | 1001.6 |
| 20260502051258 | 0 | 175 | 0.0 | 0.0 | 0.00 | 0.00 | 0.00 | 89 | 1001.6 |
| 20260502050758 | 0 | 175 | 0.0 | 0.0 | 0.00 | 0.00 | 0.00 | 89 | 1001.4 |
| 20260502050258 | 0 | 175 | 0.0 | 0.0 | 0.00 | 0.00 | 0.00 | 89 | 1001.8 |
| 20260502045758 | 0 | 175 | 0.0 | 0.0 | 0.00 | 0.00 | 0.00 | 89 | 1001.6 |
| 20260502045257 | 0 | 175 | 0.0 | 0.0 | 0.00 | 0.00 | 0.00 | 89 | 1001.7 |
| 20260502044757 | 0 | 175 | 0.0 | 0.0 | 0.00 | 0.00 | 0.00 | 89 | 1001.7 |
| 20260502044257 | 0 | 175 | 0.0 | 0.0 | 0.00 | 0.00 | 0.00 | 88 | 1001.6 |
| 20260502043756 | 0 | 175 | 0.0 | 0.0 | 0.00 | 0.00 | 0.00 | 88 | 1001.7 |
| 20260502043256 | 0 | 175 | 0.0 | 0.0 | 0.00 | 0.00 | 0.00 | 88 | 1001.9 |
| 20260502042755 | 0 | 175 | 0.0 | 0.0 | 0.00 | 0.00 | 0.00 | 88 | 1001.6 |
| 20260502042254 | 0 | 175 | 0.0 | 0.0 | 0.00 | 0.00 | 0.00 | 88 | 1001.8 |
| 20260502041754 | 0 | 175 | 0.0 | 0.0 | 0.00 | 0.00 | 0.00 | 88 | 1001.8 |
| 20260502041254 | 0 | 175 | 0.0 | 0.0 | 0.00 | 0.00 | 0.00 | 87 | 1002.0 |
| 20260502040754 | 0 | 175 | 0.0 | 0.0 | 0.00 | 0.00 | 0.00 | 87 | 1001.9 |
| 20260502040253 | 0 | 175 | 0.0 | 0.0 | 0.00 | 0.00 | 0.00 | 87 | 1002.2 |
| 20260502035752 | 0 | 175 | 0.0 | 0.0 | 0.00 | 0.00 | 0.00 | 87 | 1002.1 |
| 20260502035252 | 0 | 175 | 0.0 | 0.0 | 0.00 | 0.00 | 0.00 | 87 | 1002.0 |
| 20260502034751 | 0 | 175 | 0.0 | 0.0 | 0.00 | 0.00 | 0.00 | 87 | 1002.0 |
| 20260502034251 | 0 | 175 | 0.0 | 0.0 | 0.00 | 0.00 | 0.00 | 86 | 1002.2 |
| 20260502033751 | 0 | 175 | 0.0 | 0.0 | 0.00 | 0.00 | 0.00 | 86 | 1002.1 |
| 20260502033250 | 0 | 175 | 0.0 | 0.0 | 0.00 | 0.00 | 0.00 | 86 | 1001.8 |
| 20260502032750 | 0 | 175 | 0.0 | 0.0 | 0.00 | 0.00 | 0.00 | 86 | 1002.1 |
| 20260502032249 | 0 | 175 | 0.0 | 0.0 | 0.00 | 0.00 | 0.00 | 86 | 1002.0 |
| 20260502031749 | 0 | 175 | 0.0 | 0.0 | 0.00 | 0.00 | 0.00 | 86 | 1002.0 |
| 20260502031248 | 0 | 175 | 0.0 | 0.0 | 0.00 | 0.00 | 0.00 | 86 | 1002.1 |
| 20260502030748 | 0 | 175 | 0.0 | 0.0 | 0.00 | 0.00 | 0.00 | 86 | 1001.9 |
| 20260502030248 | 0 | 175 | 0.0 | 0.0 | 0.00 | 0.00 | 0.00 | 86 | 1002.3 |
| 20260502025747 | 0 | 175 | 0.0 | 0.0 | 0.00 | 0.00 | 0.00 | 85 | 1002.1 |
| 20260502025247 | 0 | 175 | 0.0 | 0.0 | 0.00 | 0.00 | 0.00 | 85 | 1002.3 |
| 20260502024746 | 0 | 175 | 0.0 | 0.0 | 0.00 | 0.00 | 0.00 | 85 | 1002.3 |
| 20260502024246 | 0 | 175 | 0.0 | 0.0 | 0.00 | 0.00 | 0.00 | 85 | 1002.2 |
| 20260502023745 | 0 | 175 | 0.0 | 0.0 | 0.00 | 0.00 | 0.00 | 84 | 1002.1 |
| 20260502023245 | 0 | 175 | 0.0 | 0.0 | 0.00 | 0.00 | 0.00 | 83 | 1002.2 |
| 20260502022745 | 0 | 175 | 0.0 | 0.0 | 0.00 | 0.00 | 0.00 | 83 | 1002.3 |
| 20260502022245 | 0 | 175 | 0.0 | 0.0 | 0.00 | 0.00 | 0.00 | 82 | 1002.2 |
| 20260502021744 | 0 | 175 | 0.0 | 0.0 | 0.00 | 0.00 | 0.00 | 82 | 1002.3 |
| 20260502021244 | 0 | 175 | 0.0 | 0.0 | 0.00 | 0.00 | 0.00 | 81 | 1002.3 |
| 20260502020744 | 0 | 175 | 0.0 | 0.0 | 0.00 | 0.00 | 0.00 | 82 | 1002.3 |
| 20260502020243 | 0 | 175 | 0.0 | 0.0 | 0.00 | 0.00 | 0.00 | 81 | 1002.2 |
| 20260502015238 | 0 | 175 | 0.0 | 0.0 | 0.00 | 0.00 | 0.00 | 81 | 1002.4 |
| 20260502014737 | 0 | 175 | 0.0 | 0.0 | 0.00 | 0.00 | 0.00 | 81 | 1002.3 |
| 20260502014237 | 0 | 175 | 0.0 | 0.0 | 0.00 | 0.00 | 0.00 | 81 | 1002.1 |
| 20260502013737 | 0 | 175 | 0.0 | 0.0 | 0.00 | 0.00 | 0.00 | 80 | 1002.2 |
| 20260502013236 | 0 | 175 | 0.0 | 0.0 | 0.00 | 0.00 | 0.00 | 80 | 1002.1 |
| 20260502012736 | 0 | 175 | 0.0 | 0.0 | 0.00 | 0.00 | 0.00 | 80 | 1002.1 |
| 20260502012236 | 0 | 175 | 0.0 | 0.0 | 0.00 | 0.00 | 0.00 | 80 | 1002.1 |
| 20260502011735 | 0 | 175 | 0.0 | 0.0 | 0.00 | 0.00 | 0.00 | 80 | 1002.1 |
| 20260502011235 | 0 | 175 | 0.0 | 0.0 | 0.00 | 0.00 | 0.00 | 80 | 1002.3 |
| 20260502010735 | 0 | 175 | 0.0 | 0.0 | 0.00 | 0.00 | 0.00 | 80 | 1002.1 |
| 20260502010234 | 0 | 175 | 0.0 | 0.0 | 0.00 | 0.00 | 0.00 | 80 | 1001.8 |
| 20260502005734 | 0 | 175 | 0.0 | 0.0 | 0.00 | 0.00 | 0.00 | 80 | 1001.8 |
| 20260502005234 | 0 | 175 | 0.0 | 0.0 | 0.00 | 0.00 | 0.00 | 79 | 1001.7 |
| 20260502004734 | 0 | 175 | 0.0 | 0.0 | 0.00 | 0.00 | 0.00 | 78 | 1001.8 |
| 20260502004233 | 0 | 175 | 0.0 | 0.0 | 0.00 | 0.00 | 0.00 | 78 | 1001.8 |
| 20260502003733 | 0 | 175 | 0.0 | 0.0 | 0.00 | 0.00 | 0.00 | 77 | 1001.7 |
| 20260502003233 | 0 | 175 | 0.0 | 0.0 | 0.00 | 0.00 | 0.00 | 77 | 1001.6 |
| 20260502002732 | 0 | 175 | 0.0 | 0.0 | 0.00 | 0.00 | 0.00 | 76 | 1001.4 |
| 20260502002232 | 0 | 175 | 0.0 | 0.0 | 0.00 | 0.00 | 0.00 | 75 | 1001.1 |
| 20260502001732 | 0 | 175 | 0.0 | 0.0 | 0.00 | 0.00 | 0.00 | 74 | 1001.3 |
| 20260502001231 | 0 | 175 | 0.0 | 0.0 | 0.00 | 0.00 | 0.00 | 74 | 1001.4 |
| 20260502000731 | 0 | 175 | 0.0 | 0.0 | 0.00 | 0.00 | 0.00 | 73 | 1001.4 |
| 20260502000233 | 0 | 175 | 0.0 | 0.0 | 0.00 | 0.00 | 0.00 | 73 | 1001.4 |
| 20260501235216 | 0 | 174 | 0.0 | 1.0 | 0.00 | 0.00 | 0.00 | 71 | 1001.5 |
| 20260501234715 | 0 | 171 | 0.0 | 0.0 | 0.00 | 0.00 | 0.00 | 71 | 1001.3 |
| 20260501234215 | 0 | 171 | 0.0 | 0.0 | 0.00 | 0.00 | 0.00 | 71 | 1001.3 |
| 20260501233715 | 0 | 176 | 0.0 | 0.0 | 0.00 | 0.00 | 0.00 | 70 | 1001.2 |
| 20260501233214 | 0 | 176 | 1.0 | 2.0 | 0.00 | 0.00 | 0.00 | 70 | 1001.4 |
| 20260501232714 | 0 | 179 | 0.0 | 0.0 | 0.00 | 0.00 | 0.00 | 71 | 1001.3 |
| 20260501232213 | 0 | 178 | 0.0 | 0.0 | 0.00 | 0.00 | 0.00 | 71 | 1001.4 |
| 20260501231713 | 0 | 178 | 0.0 | 0.0 | 0.00 | 0.00 | 0.00 | 71 | 1001.2 |
| 20260501231213 | 0 | 179 | 0.0 | 1.0 | 0.00 | 0.00 | 0.00 | 70 | 1001.3 |
| 20260501230713 | 0 | 178 | 1.0 | 1.0 | 0.00 | 0.00 | 0.00 | 70 | 1001.3 |
| 20260501230212 | 0 | 178 | 0.0 | 0.0 | 0.00 | 0.00 | 0.00 | 71 | 1001.2 |
| 20260501225712 | 0 | 178 | 0.0 | 0.0 | 0.00 | 0.00 | 0.00 | 70 | 1001.3 |
| 20260501225212 | 0 | 177 | 0.0 | 1.0 | 0.00 | 0.00 | 0.00 | 70 | 1001.3 |
| 20260501224711 | 0 | 177 | 0.0 | 0.0 | 0.00 | 0.00 | 0.00 | 71 | 1001.4 |
| 20260501224211 | 0 | 177 | 0.0 | 0.0 | 0.00 | 0.00 | 0.00 | 71 | 1001.3 |
| 20260501223711 | 0 | 177 | 0.0 | 0.0 | 0.00 | 0.00 | 0.00 | 70 | 1001.4 |
| 20260501223210 | 0 | 178 | 0.0 | 0.0 | 0.00 | 0.00 | 0.00 | 70 | 1001.4 |
| 20260501222710 | 0 | 178 | 0.0 | 0.0 | 0.00 | 0.00 | 0.00 | 70 | 1001.5 |
| 20260501222210 | 0 | 182 | 0.0 | 0.0 | 0.00 | 0.00 | 0.00 | 69 | 1001.7 |